Weather History for Columbus, NE

Change the Weather History Date:

Monday, October 22, 2012

  Actual Average Record
Temperature  
Mean Temperature 52 °F -  
Max Temperature 57 °F 63 °F 86 °F (2003)
Min Temperature 48 °F 40 °F 24 °F (1981)
Degree Days  
Heating Degree Days 12    
Growing Degree Days 2 (Base 50)    
Moisture  
Dew Point 46 °F    
Average Humidity 80    
Maximum Humidity 88    
Minimum Humidity 63    
Precipitation  
Precipitation 0.03 in - - ()
Sea Level Pressure  
Sea Level Pressure 29.82 in    
Wind  
Wind Speed 11 mph (North)    
Max Wind Speed 18 mph    
Max Gust Speed 26 mph    
Visibility 4 miles    
Events      
Averages and records for this station are not official NWS values.
T = Trace of Precipitation, MM = Missing Value Source: NWS Daily Summary

Daily Weather History Graph

Daily Weather History Graph

Search for Another Location

Airport:

Trip Planner

Search our weather history database for the weather conditions in past years. The results will help you decide how hot, cold, wet, or windy it might be!

Date:

Astronomy

Oct. 22, 2012 Rise Set
Actual Time 7:49 AM CDT 6:37 PM CDT
Civil Twilight 7:21 AM CDT 7:05 PM CDT
Nautical Twilight 6:49 AM CDT 7:37 PM CDT
Astronomical Twilight 6:17 AM CDT 8:09 PM CDT
Moon 2:50 PM CDT (10/22) 12:33 AM CDT (10/22)
Length of Visible Light 11h 43m
Length of Day
10h 47m
First Quarter, 56% of the Moon is Illuminated
Oct 22
First Quarter
Oct 29
Full
Nov 6
Last Quarter
Nov 13
New
Nov 20
First Quarter

Hourly Weather History & Observations

Time (CDT) Temp. Dew Point Humidity Pressure Visibility Wind Dir Wind Speed Gust Speed Precip Events Conditions
12:15 AM 57.2 °F 44.6 °F 63% 29.81 in 2.5 mi NNE 16.1 mph 23.0 mph N/A   Mostly Cloudy
12:55 AM 55.4 °F 44.6 °F 67% 29.81 in 2.5 mi NNE 17.3 mph 26.5 mph N/A   Overcast
1:35 AM 53.6 °F 42.8 °F 67% 29.80 in 1.8 mi NNE 18.4 mph 24.2 mph N/A   Overcast
1:55 AM 53.6 °F 42.8 °F 67% 29.80 in 1.5 mi NNE 13.8 mph 20.7 mph N/A   Overcast
2:15 AM 53.6 °F 42.8 °F 67% 29.80 in 1.2 mi NNE 13.8 mph 18.4 mph N/A   Overcast
2:35 AM 53.6 °F 42.8 °F 67% 29.79 in 1.2 mi North 11.5 mph - N/A   Overcast
2:55 AM 53.6 °F 44.6 °F 72% 29.80 in 1.5 mi NNE 11.5 mph - N/A   Overcast
3:15 AM 53.6 °F 44.6 °F 72% 29.79 in 1.5 mi NNE 10.4 mph - N/A   Overcast
3:55 AM 51.8 °F 42.8 °F 71% 29.79 in 1.5 mi NNE 11.5 mph - N/A   Overcast
4:15 AM 51.8 °F 42.8 °F 71% 29.79 in 1.5 mi NNE 9.2 mph - N/A   Overcast
4:35 AM 51.8 °F 42.8 °F 71% 29.79 in 1.8 mi NNE 10.4 mph - N/A   Overcast
4:55 AM 51.8 °F 42.8 °F 71% 29.80 in 1.2 mi NNE 10.4 mph - N/A   Overcast
5:15 AM 51.8 °F 42.8 °F 71% 29.81 in 1.2 mi NNE 9.2 mph - N/A   Overcast
5:35 AM 51.8 °F 44.6 °F 76% 29.81 in 1.5 mi NNE 8.1 mph - N/A   Overcast
5:55 AM 51.8 °F 44.6 °F 76% 29.81 in 3.0 mi NNE 11.5 mph - N/A   Overcast
6:15 AM 51.8 °F 44.6 °F 76% 29.82 in 5.0 mi North 10.4 mph - N/A   Overcast
6:55 AM 50.0 °F 44.6 °F 82% 29.82 in 10.0 mi NW 12.7 mph - N/A   Overcast
7:15 AM 50.0 °F 44.6 °F 82% 29.83 in 9.0 mi North 12.7 mph - N/A   Overcast
7:35 AM 50.0 °F 44.6 °F 82% 29.84 in 5.0 mi North 10.4 mph - N/A   Overcast
7:55 AM 48.2 °F 44.6 °F 87% 29.84 in 4.0 mi North 12.7 mph - N/A   Overcast
8:15 AM 48.2 °F 44.6 °F 87% 29.84 in 2.5 mi North 9.2 mph - N/A   Overcast
8:35 AM 48.2 °F 44.6 °F 87% 29.85 in 2.0 mi North 8.1 mph - N/A   Overcast
8:55 AM 48.2 °F 44.6 °F 87% 29.85 in 2.0 mi North 11.5 mph - N/A   Overcast
9:15 AM 48.2 °F 44.6 °F 87% 29.86 in 2.5 mi North 6.9 mph - N/A   Overcast
9:35 AM 48.2 °F 44.6 °F 87% 29.86 in 2.5 mi North 10.4 mph - N/A   Overcast
9:55 AM 48.2 °F 44.6 °F 87% 29.86 in 2.5 mi North 9.2 mph - N/A   Overcast
10:15 AM 48.2 °F 44.6 °F 87% 29.85 in 2.5 mi North 10.4 mph - N/A   Overcast
10:35 AM 50.0 °F 44.6 °F 82% 29.85 in 2.0 mi North 10.4 mph - N/A   Overcast
10:55 AM 50.0 °F 44.6 °F 82% 29.86 in 2.5 mi North 10.4 mph - N/A   Overcast
11:15 AM 50.0 °F 46.4 °F 87% 29.86 in 2.5 mi NNW 9.2 mph - N/A   Overcast
11:35 AM 50.0 °F 46.4 °F 87% 29.86 in 2.5 mi North 11.5 mph - N/A   Overcast
11:55 AM 50.0 °F 46.4 °F 87% 29.86 in 2.0 mi North 10.4 mph - N/A   Overcast
12:15 PM 50.0 °F 46.4 °F 87% 29.85 in 2.0 mi North 10.4 mph - 0.01 in   Overcast
12:35 PM 51.8 °F 46.4 °F 82% 29.85 in 1.2 mi North 12.7 mph - 0.03 in   Overcast
12:55 PM 51.8 °F 46.4 °F 82% 29.85 in 1.8 mi North 8.1 mph - 0.03 in   Overcast
1:15 PM 51.8 °F 46.4 °F 82% 29.84 in 3.0 mi North 6.9 mph - N/A   Overcast
1:35 PM 51.8 °F 46.4 °F 82% 29.83 in 2.5 mi North 9.2 mph - N/A   Overcast
1:55 PM 51.8 °F 48.2 °F 88% 29.82 in 2.5 mi North 11.5 mph - N/A   Overcast
2:15 PM 51.8 °F 48.2 °F 88% 29.83 in 3.0 mi North 6.9 mph - N/A   Overcast
2:35 PM 53.6 °F 48.2 °F 82% 29.82 in 3.0 mi NNW 9.2 mph - N/A   Overcast
2:55 PM 53.6 °F 48.2 °F 82% 29.81 in 3.0 mi North 9.2 mph - N/A   Overcast
3:15 PM 53.6 °F 48.2 °F 82% 29.81 in 2.0 mi North 10.4 mph - N/A   Overcast
3:35 PM 53.6 °F 48.2 °F 82% 29.81 in 3.0 mi North 9.2 mph - N/A   Overcast
3:55 PM 53.6 °F 48.2 °F 82% 29.81 in 2.0 mi North 9.2 mph - N/A   Overcast
4:15 PM 53.6 °F 48.2 °F 82% 29.80 in 1.0 mi NNE 6.9 mph - N/A   Overcast
4:35 PM 53.6 °F 50.0 °F 88% 29.81 in 1.2 mi North 5.8 mph - N/A   Overcast
4:55 PM 55.4 °F 50.0 °F 82% 29.80 in 4.0 mi North 6.9 mph - N/A   Overcast
5:15 PM 55.4 °F 50.0 °F 82% 29.81 in 1.2 mi NNE 8.1 mph - N/A   Overcast
5:35 PM 55.4 °F 50.0 °F 82% 29.81 in 1.8 mi NNE 8.1 mph - N/A   Overcast
5:55 PM 55.4 °F 50.0 °F 82% 29.81 in 0.8 mi NNE 8.1 mph - N/A   Overcast
6:15 PM 55.4 °F 50.0 °F 82% 29.81 in 1.5 mi North 5.8 mph - N/A   Overcast
6:35 PM 55.4 °F 50.0 °F 82% 29.81 in 7.0 mi NNW 4.6 mph - N/A   Overcast
6:55 PM 55.4 °F 50.0 °F 82% 29.81 in 7.0 mi NW 5.8 mph - N/A   Overcast
7:15 PM 55.4 °F 48.2 °F 77% 29.81 in 8.0 mi WNW 4.6 mph - N/A   Overcast
7:35 PM 55.4 °F 48.2 °F 77% 29.81 in 9.0 mi NW 5.8 mph - N/A   Overcast
7:55 PM 55.4 °F 48.2 °F 77% 29.82 in 10.0 mi West 5.8 mph - N/A   Overcast
8:15 PM 55.4 °F 48.2 °F 77% 29.83 in 10.0 mi WNW 8.1 mph - N/A   Overcast
8:55 PM 55.4 °F 48.2 °F 77% 29.79 in 8.0 mi Calm Calm - N/A   Overcast
9:15 PM 55.4 °F 50.0 °F 82% 29.80 in 8.0 mi Calm Calm - N/A   Overcast
9:35 PM 55.4 °F 50.0 °F 82% 29.79 in 9.0 mi Calm Calm - N/A   Overcast
9:55 PM 55.4 °F 50.0 °F 82% 29.79 in 8.0 mi Calm Calm - N/A   Overcast
10:15 PM 55.4 °F 48.2 °F 77% 29.80 in 8.0 mi West 6.9 mph - N/A   Overcast
10:35 PM 55.4 °F 48.2 °F 77% 29.79 in 8.0 mi West 3.5 mph - N/A   Overcast
10:55 PM 55.4 °F 48.2 °F 77% 29.79 in 8.0 mi West 4.6 mph - N/A   Overcast
11:15 PM 55.4 °F 48.2 °F 77% 29.79 in 7.0 mi West 4.6 mph - N/A   Overcast
11:35 PM 53.6 °F 48.2 °F 82% 29.79 in 7.0 mi West 6.9 mph - N/A   Overcast